Location: Usti nad Labem
(50.6670°N, 14.0330°E)
Time: 02:07:43
(UTC+02:00)

ISS - Visible Passes

Search period start: 20 September 2017 00:00
Search period end: 30 September 2017 00:00
Orbit: 401 x 407 km, 51.6° (Epoch: 20 September)

Date Brightness Start Highest point End Pass type
(mag) Time Alt. Az. Time Alt. Az. Time Alt. Az.
20 Sep -1.0 04:16:11 11° SE 04:16:11 11° SE 04:16:23 10° SE visible
20 Sep -1.7 05:48:53 12° SW 05:49:03 12° SW 05:50:18 10° SSW visible
26 Sep -2.2 20:27:44 10° SSW 20:29:37 21° SSE 20:29:37 21° SSE visible
27 Sep -1.9 19:36:16 10° S 19:38:12 15° SE 19:39:44 12° ESE visible
27 Sep -1.9 21:10:57 10° WSW 21:12:24 24° SW 21:12:24 24° SW visible
28 Sep -3.3 20:18:44 10° SW 20:21:50 40° SSE 20:22:21 37° SE visible
28 Sep -0.5 21:54:54 10° W 21:55:00 11° W 21:55:00 11° W visible
29 Sep -2.6 19:26:43 10° SSW 19:29:32 27° SSE 19:32:09 11° E visible
29 Sep -2.8 21:02:27 10° WSW 21:04:48 44° WSW 21:04:48 44° WSW visible
